Total_Precipitation_Accumulation
0.85 0.91 0.97 1.00 1.06 1.17 1.28 1.35 1.39 1.41 1.42 1.51 1.61 1.70 1.71 1.74 1.79 1.80 1.72 1.69 1.64 1.55 1.54 1.60 1.59 1.53 1.59 1.59 1.63 1.75 1.89 2.06 2.11 1.70 1.43 1.44 1.57 1.60 1.62 1.54 1.49 1.50 1.48
0.74 0.77 0.81 0.87 0.90 0.97 1.06 1.13 1.20 1.25 1.29 1.33 1.33 1.36 1.45 1.52 1.62 1.68 1.66 1.60 1.56 1.49 1.43 1.48 1.51 1.51 1.56 1.58 1.64 1.70 1.75 1.83 1.93 1.81 1.53 1.43 1.41 1.38 1.35 1.33 1.30 1.25 1.20
0.69 0.73 0.75 0.76 0.77 0.81 0.84 0.89 0.93 1.00 1.10 1.19 1.20 1.19 1.20 1.23 1.32 1.44 1.52 1.53 1.49 1.44 1.45 1.45 1.46 1.53 1.59 1.59 1.64 1.69 1.66 1.62 1.61 1.60 1.43 1.26 1.23 1.23 1.29 1.24 1.21 1.21 1.10
0.65 0.68 0.73 0.71 0.70 0.72 0.71 0.75 0.76 0.78 0.81 0.89 0.96 1.00 1.06 1.10 1.13 1.19 1.29 1.39 1.45 1.46 1.48 1.50 1.49 1.56 1.66 1.68 1.69 1.67 1.62 1.58 1.50 1.47 1.40 1.27 1.21 1.16 1.24 1.27 1.25 1.22 1.16
0.64 0.64 0.66 0.68 0.67 0.65 0.64 0.64 0.62 0.63 0.64 0.68 0.77 0.83 0.91 0.98 1.03 1.09 1.15 1.25 1.30 1.34 1.41 1.49 1.53 1.64 1.71 1.68 1.56 1.46 1.42 1.43 1.39 1.37 1.32 1.22 1.17 1.16 1.17 1.10 1.09 1.11 1.15
0.61 0.60 0.60 0.63 0.64 0.64 0.61 0.57 0.57 0.59 0.63 0.65 0.70 0.75 0.83 0.89 1.10 1.16 1.14 1.14 1.21 1.26 1.28 1.31 1.38 1.46 1.40 1.41 1.38 1.31 1.36 1.44 1.43 1.32 1.19 1.05 0.92 0.89 0.91 1.00 1.08 1.20 1.26
0.67 0.63 0.60 0.61 0.64 0.64 0.64 0.65 0.65 0.65 0.68 0.71 0.72 0.75 0.79 0.89 1.08 1.13 1.24 1.18 1.18 1.20 1.19 1.18 1.14 1.08 1.11 0.98 1.04 1.07 1.08 1.15 1.17 1.14 1.11 0.91 0.79 0.77 0.93 1.07 1.10 1.09 1.01
0.82 0.80 0.74 0.75 0.80 0.83 0.83 0.84 0.83 0.83 0.85 0.86 0.86 0.88 0.92 1.01 1.14 1.13 1.17 1.10 1.04 1.01 0.97 0.95 0.94 0.90 0.89 0.95 0.96 0.95 0.83 0.78 0.78 0.76 0.75 0.72 0.73 0.82 1.00 1.18 1.22 1.22 1.07
1.01 1.09 1.05 1.02 1.06 1.12 1.14 1.13 1.11 1.09 1.09 1.08 1.09 1.07 1.06 1.07 1.09 1.00 0.98 0.91 0.87 0.80 0.76 0.77 0.80 0.79 0.88 1.03 1.03 0.96 0.85 0.76 0.76 0.82 0.84 0.84 0.93 1.01 1.11 1.30 1.47 1.61 1.50
1.13 1.22 1.19 1.16 1.16 1.18 1.19 1.15 1.09 1.05 1.04 1.01 1.01 0.98 0.92 0.85 0.85 0.82 0.79 0.74 0.72 0.65 0.63 0.66 0.78 0.82 0.96 1.11 1.09 1.04 0.97 0.81 0.77 0.81 0.81 0.80 0.80 0.85 0.97 1.01 1.19 1.56 1.57
1.10 1.08 1.03 0.97 0.92 0.90 0.89 0.85 0.81 0.77 0.76 0.72 0.71 0.68 0.63 0.60 0.63 0.67 0.72 0.72 0.74 0.72 0.67 0.63 0.67 0.84 0.96 1.08 1.14 1.07 1.02 0.96 0.91 0.91 0.91 0.87 0.85 0.87 0.87 0.85 0.93 1.25 1.56
0.81 0.76 0.71 0.67 0.64 0.64 0.67 0.64 0.60 0.57 0.57 0.54 0.51 0.50 0.49 0.48 0.53 0.59 0.68 0.74 0.79 0.80 0.72 0.61 0.61 0.80 0.94 1.01 1.03 1.06 1.13 1.12 1.01 1.00 0.99 0.96 0.91 0.88 0.84 0.82 0.86 0.94 1.07
0.52 0.48 0.47 0.46 0.47 0.48 0.51 0.54 0.51 0.49 0.51 0.50 0.48 0.49 0.50 0.47 0.49 0.57 0.64 0.68 0.75 0.76 0.70 0.73 0.79 0.88 0.92 0.93 0.95 1.01 1.04 1.00 1.00 1.00 0.93 0.82 0.75 0.76 0.81 0.89 0.95 0.98 1.01
0.45 0.43 0.41 0.41 0.43 0.46 0.50 0.54 0.56 0.56 0.59 0.59 0.58 0.57 0.53 0.50 0.50 0.56 0.64 0.68 0.74 0.77 0.77 0.79 0.82 0.87 0.90 0.91 0.94 0.94 0.93 0.95 0.99 0.96 0.84 0.76 0.77 0.82 0.90 0.94 1.03 1.09 1.23
0.44 0.45 0.45 0.43 0.43 0.46 0.50 0.57 0.64 0.65 0.72 0.83 0.80 0.75 0.75 0.71 0.63 0.75 0.87 0.88 0.90 0.92 0.97 0.96 0.88 0.84 0.87 0.88 0.86 0.87 0.89 0.95 1.00 0.93 0.93 0.92 0.91 0.91 0.93 0.93 1.04 1.15 1.25
0.47 0.47 0.49 0.51 0.49 0.49 0.51 0.57 0.64 0.69 0.72 0.74 0.75 0.81 0.81 0.83 0.85 0.90 0.92 0.93 0.96 1.03 1.10 1.02 0.86 0.78 0.77 0.78 0.80 0.84 0.87 0.91 0.93 0.98 1.03 1.06 1.08 1.06 1.05 1.02 1.09 1.23 1.23
0.54 0.55 0.57 0.57 0.57 0.59 0.58 0.60 0.66 0.70 0.73 0.73 0.71 0.73 0.78 0.84 0.91 0.94 0.95 0.98 1.02 1.07 1.04 0.85 0.73 0.71 0.72 0.74 0.79 0.84 0.87 0.86 0.96 1.08 1.13 1.13 1.16 1.19 1.19 1.17 1.16 1.24 1.24
0.46 0.51 0.56 0.58 0.59 0.61 0.63 0.64 0.65 0.68 0.70 0.71 0.70 0.72 0.76 0.82 0.88 0.95 1.00 1.06 1.08 1.01 0.88 0.77 0.72 0.71 0.75 0.81 0.86 0.90 0.92 0.94 1.03 1.09 1.12 1.15 1.22 1.31 1.33 1.25 1.21 1.25 1.30
0.46 0.50 0.56 0.60 0.62 0.63 0.64 0.67 0.67 0.67 0.67 0.67 0.67 0.74 0.82 0.89 0.92 0.96 1.00 1.00 0.93 0.84 0.77 0.75 0.76 0.79 0.83 0.88 0.93 0.96 1.01 1.05 1.05 1.11 1.13 1.13 1.21 1.38 1.34 1.18 1.21 1.27 1.38
0.49 0.57 0.64 0.65 0.66 0.66 0.68 0.71 0.72 0.71 0.71 0.70 0.70 0.79 0.94 1.03 0.99 0.93 0.91 0.86 0.83 0.80 0.78 0.81 0.82 0.87 0.93 0.97 1.01 1.04 1.08 1.06 1.08 1.13 1.13 1.14 1.20 1.34 1.36 1.24 1.26 1.35 1.32
0.52 0.56 0.65 0.66 0.65 0.67 0.71 0.74 0.75 0.75 0.74 0.71 0.72 0.83 1.10 1.19 1.05 0.91 0.88 0.86 0.87 0.88 0.91 0.93 0.92 0.94 0.99 1.04 1.07 1.07 1.08 1.02 1.02 1.10 1.14 1.16 1.23 1.32 1.26 1.27 1.28 1.32 1.40
0.55 0.57 0.61 0.65 0.66 0.70 0.77 0.79 0.80 0.78 0.73 0.71 0.70 0.79 0.97 0.96 0.90 0.87 0.85 0.83 0.84 0.88 0.95 1.04 1.02 0.96 1.02 1.14 1.20 1.21 1.13 1.00 0.96 1.07 1.15 1.17 1.23 1.27 1.30 1.35 1.37 1.44 1.49
0.60 0.61 0.62 0.62 0.66 0.72 0.76 0.72 0.73 0.74 0.72 0.70 0.71 0.73 0.78 0.79 0.77 0.79 0.81 0.82 0.85 0.87 0.90 0.97 0.99 0.91 0.89 1.02 1.15 1.31 1.34 1.13 1.04 1.17 1.37 1.38 1.36 1.39 1.47 1.52 1.44 1.43 1.34
0.61 0.62 0.63 0.64 0.65 0.68 0.69 0.66 0.66 0.69 0.71 0.71 0.71 0.70 0.70 0.72 0.73 0.74 0.78 0.83 0.86 0.87 0.87 0.91 0.93 0.89 0.87 0.96 1.03 1.08 1.17 1.27 1.48 1.61 1.74 1.94 1.82 1.62 1.59 1.54 1.39 1.32 1.33
0.61 0.63 0.64 0.66 0.68 0.69 0.68 0.66 0.65 0.65 0.67 0.69 0.69 0.69 0.67 0.68 0.70 0.70 0.73 0.78 0.81 0.83 0.81 0.82 0.86 0.88 0.89 0.92 0.95 0.98 1.08 1.27 1.61 2.05 2.24 2.14 1.83 1.57 1.56 1.52 1.39 1.34 1.35
0.60 0.63 0.66 0.67 0.68 0.68 0.68 0.67 0.66 0.66 0.68 0.68 0.70 0.71 0.72 0.72 0.71 0.72 0.73 0.76 0.79 0.77 0.76 0.76 0.78 0.82 0.87 0.90 0.89 0.94 1.09 1.22 1.35 1.57 2.02 2.15 1.89 1.59 1.56 1.65 1.50 1.44 1.43